This is the latest recevied weather packets stored in our database for station/object WV5G-13. If no packets are shown the sender has not sent any weather packets the latest 10 day(s).
| Time | Temp. | Humidity | Pressure | Rain* | Wind** | Luminosity | Snow |
|---|---|---|---|---|---|---|---|
| 1777756063 | 22.22° C | 19% | 1018 hPa | 0 mm | - | 708 W/m² | - |
| 1777755755 | 22.22° C | 18% | 1017.8 hPa | 0 mm | - | 723 W/m² | - |
| 1777755452 | 21.67° C | 20% | 1018 hPa | 0 mm | - | 740 W/m² | - |
| 1777755148 | 21.67° C | 20% | 1018 hPa | 0 mm | - | 761 W/m² | - |
| 1777754846 | 22.22° C | 19% | 1018.1 hPa | 0 mm | - | 778 W/m² | - |
| 1777754543 | 21.11° C | 18% | 1018.1 hPa | 0 mm | - | 792 W/m² | - |
| 1777754241 | 21.67° C | 20% | 1018.2 hPa | 0 mm | - | 804 W/m² | - |
| 1777753938 | 21.67° C | 19% | 1018.5 hPa | 0 mm | - | 818 W/m² | - |
| 1777753632 | 21.67° C | 20% | 1018.6 hPa | 0 mm | - | 827 W/m² | - |
| 1777753331 | 21.67° C | 18% | 1018.4 hPa | 0 mm | - | 835 W/m² | - |
| 1777753028 | 22.78° C | 17% | 1018.2 hPa | 0 mm | - | 839 W/m² | - |
| 1777752725 | 21.67° C | 19% | 1018.5 hPa | 0 mm | - | 841 W/m² | - |
| 1777752420 | 22.22° C | 21% | 1018.7 hPa | 0 mm | - | 844 W/m² | - |
| 1777752117 | 21.67° C | 20% | 1018.5 hPa | 0 mm | - | 845 W/m² | - |
| 1777751815 | 21.67° C | 21% | 1018.7 hPa | 0 mm | - | 849 W/m² | - |
| 1777751511 | 22.22° C | 19% | 1018.4 hPa | 0 mm | - | 855 W/m² | - |
| 1777751208 | 21.67° C | 18% | 1018.6 hPa | 0 mm | - | 867 W/m² | - |
| 1777750904 | 21.67° C | 20% | 1018.7 hPa | 0 mm | - | 873 W/m² | - |
| 1777750601 | 20.56° C | 19% | 1018.7 hPa | 0 mm | - | 875 W/m² | - |
| 1777750299 | 20.56° C | 21% | 1018.9 hPa | 0 mm | - | 875 W/m² | - |
| 1777749993 | 21.11° C | 21% | 1018.6 hPa | 0 mm | - | 874 W/m² | - |
| 1777749692 | 21.67° C | 21% | 1019 hPa | 0 mm | - | 875 W/m² | - |
| 1777749388 | 20.56° C | 20% | 1019 hPa | 0 mm | - | 876 W/m² | - |
| 1777749086 | 20.56° C | 22% | 1018.9 hPa | 0 mm | - | 876 W/m² | - |
| 1777748783 | 20.56° C | 20% | 1019.1 hPa | 0 mm | - | 882 W/m² | - |
* Rain latest hour (hover to see other rain measurements)
** Current wind speed in m/s (hover to see current wind gust speed)